Flag for U.S.A. Weather past 2 weeks in Concord, California, U.S.A.

Now
96 °F

Sunny.


Feels Like: 92 °F
Forecast: 67 / 91 °F
Wind: 13 mph from West

Location: Buchanan Field

Current Time: Aug 27, 2015 at 6:11:17 PM

Latest Report: Aug 27, 2015 at 4:53 PM


Visibility: 10 mi

Pressure: 29.90 "Hg

Humidity: 15%

Dew point: 42 °F

Location of ConcordLocation

Historic Weather in Concord — Graph

°F

Concord temperature yesterday

Maximum temperature yesterday: 95 °F (at 3:53 PM)
Minimum temperature yesterday: 59 °F (at 4:53 AM)
Average temperature yesterday: 75 °F

Past Weeks' High & Low Weather Summary

 TemperatureHumidityPressure
High104 °F (Aug 16, 4:53 PM)84% (Aug 25, 5:53 AM)30.03 "Hg (Aug 25, 5:53 AM)
Low58 °F (Aug 25, 4:53 AM)10% (Aug 16, 2:53 PM)29.72 "Hg (Aug 17, 4:53 PM)
Average73 °F53%29.89 "Hg
* Reported Aug 12 4:53 PM — Aug 27 4:53 PM, Concord, Weather by CustomWeather, © 2015

Note: Actual official high and low records may vary slightly from our data, if they occured in-between our weather recording intervals... More about our weather records

Advertising

Concord weather history for previous 24 hours

 ConditionsComfort  
Time TempWeatherWind HumidityBarometerVisibility
4:53 PM
Thu, Aug 27
96 °FSunny.13 mph15%29.90 "Hg10 mi
3:53 PM97 °FSunny.14 mph17%29.91 "Hg10 mi
2:53 PM98 °FSunny.14 mph16%29.93 "Hg10 mi
1:53 PM96 °FSunny.14 mph17%29.95 "Hg10 mi
12:53 PM93 °FSunny.12 mph18%29.97 "Hg10 mi
11:53 AM89 °FSunny.10 mph22%29.98 "Hg10 mi
10:53 AM84 °FSunny.7 mph32%29.99 "Hg10 mi
9:53 AM80 °FSunny.No wind31%29.99 "Hg10 mi
8:53 AM74 °FSunny.3 mph46%30.00 "Hg10 mi
7:53 AM69 °FSunny.No wind63%29.99 "Hg10 mi
6:53 AM65 °FClear.No wind70%29.98 "Hg10 mi
5:53 AM66 °FClear.3 mph65%29.96 "Hg10 mi
4:53 AM65 °FClear.No wind51%29.96 "Hg10 mi
3:53 AM66 °FClear.3 mph50%29.95 "Hg10 mi
2:53 AM68 °FClear.5 mph47%29.95 "Hg10 mi
1:53 AM71 °FClear.No wind41%29.95 "Hg10 mi
12:53 AM72 °FClear.5 mph38%29.95 "Hg10 mi
11:53 PM
Wed, Aug 26
74 °FClear.10 mph36%29.94 "Hg10 mi
10:53 PM76 °FClear.8 mph25%29.94 "Hg10 mi
9:53 PM79 °FClear.12 mph20%29.94 "Hg10 mi
8:53 PM79 °FClear.7 mph25%29.94 "Hg10 mi
7:53 PM81 °FSunny.9 mph24%29.91 "Hg10 mi
6:53 PM86 °FSunny.12 mph21%29.90 "Hg10 mi
Weather by CustomWeather, © 2015

See weather overviewHow to use our weather pages